Flag for USA Past Weather in Avalon (Santa Catalina Island), California, USA — Yesterday and Last 2 Weeks

Now
83 °F

Clear.


Feels Like: 80 °F
Forecast: 74 / 85 °F
Wind: No wind

Location: Catalina Airport

Current Time: Sep 27, 2016 at 6:54:40 AM

Latest Report: Sep 27, 2016 at 5:51 AM


Visibility: 10 mi

Pressure: 29.80 "Hg

Humidity: 15%

Dew Point: 31 °F

Location of Avalon (Santa Catalina Island)Location

Past Weather in Avalon (Santa Catalina Island) — Graph

°F

Avalon (Santa Catalina Island) Temperature Yesterday

Maximum temperature yesterday: 96 °F (at 12:51 PM)
Minimum temperature yesterday: 81 °F (at 2:51 AM)
Average temperature yesterday: 87 °F

High & Low Weather Summary for the Past Weeks

 TemperatureHumidityPressure
High96 °F (Sep 18, 12:51 PM)100% (Sep 12, 4:51 PM)30.08 "Hg (Sep 12, 4:51 PM)
Low55 °F (Sep 13, 9:51 PM)6% (Sep 18, 1:51 PM)29.80 "Hg (Sep 27, 3:51 AM)
Average71 °F54%29.92 "Hg
* Reported Sep 12 4:51 AM — Sep 27 4:51 AM, Avalon (Santa Catalina Island), Weather by CustomWeather, © 2016

Note: Actual official high and low records may vary slightly from our data, if they occured in-between our weather recording intervals... More about our weather records

Advertising

Avalon (Santa Catalina Island) Weather History for the Previous 24 Hours

Scroll right to see more
 ConditionsComfort  
Time TempWeatherWind HumidityBarometerVisibility
4:51 AM
Tue, Sep 27
81 °FClear.No wind17%29.80 "Hg10 mi
3:51 AM84 °FClear.6 mph13%29.80 "Hg10 mi
2:51 AM84 °FClear.3 mph13%29.81 "Hg10 mi
1:51 AM85 °FClear.7 mph13%29.81 "Hg10 mi
12:51 AM85 °FClear.7 mph13%29.82 "Hg10 mi
11:51 PM
Mon, Sep 26
87 °FClear.9 mph12%29.84 "Hg10 mi
10:51 PM85 °FClear.7 mph13%29.85 "Hg10 mi
9:51 PM85 °FClear.7 mph14%29.86 "Hg10 mi
8:51 PM84 °FClear.7 mph15%29.86 "Hg10 mi
7:51 PM85 °FClear.8 mph15%29.84 "Hg10 mi
6:51 PM86 °FClear.8 mph14%29.84 "Hg10 mi
5:51 PM88 °FSunny.8 mph13%29.84 "Hg10 mi
4:51 PM89 °FSunny.7 mph14%29.85 "Hg10 mi
3:51 PM92 °FSunny.10 mph12%29.85 "Hg10 mi
2:51 PM93 °FSunny.9 mph11%29.86 "Hg10 mi
1:51 PM96 °FSunny.8 mph10%29.87 "Hg10 mi
12:51 PM96 °FSunny.6 mph10%29.88 "Hg10 mi
11:51 AM95 °FSunny.6 mph10%29.90 "Hg10 mi
10:51 AM94 °FSunny.7 mph11%29.90 "Hg10 mi
9:51 AM92 °FSunny.6 mph10%29.92 "Hg10 mi
8:51 AM90 °FSunny.8 mph11%29.91 "Hg10 mi
7:51 AM88 °FSunny.7 mph12%29.91 "Hg10 mi
6:51 AM83 °FSunny.9 mph13%29.91 "Hg10 mi
Weather by CustomWeather, © 2016

See weather overviewHow to use our weather pages